Location: Arboyeti
(42.1122°N, 44.6017°E)
Time: 20:57:20
(UTC+00:00)

N. Korean satellite - Pass Details

Date: 28 September 2021
Orbit: 450 x 494 km, 97.3° (Epoch: 28 October)

Event Time Altitude Azimuth Distance (km) Brightness Sun altitude
Rises 02:05:44 0° 16° (NNE) 2,540 10.5 -10.0°
Reaches altitude 10° 02:07:49 10° 20° (NNE) 1,664 9.6 -9.6°
Maximum altitude 02:11:21 57° 100° (E) 578 7.3 -9.0°
Drops below altitude 10° 02:14:54 10° 180° (S) 1,674 9.2 -8.3°
Sets 02:17:00 0° 184° (S) 2,556 10.1 -7.9°
